| time (UTC) | temp F | wind direction | speed MPH | gust MPH | rain 1hr in | rain 24hr in | rain mn in | humidity % | barometer mb |
| 20260831163108 | 70 | 347 | 4.0 | 0.0 | 0.00 | 0.00 | 0.05 | 68 | 1100.1 |
| 20260831161632 | 70 | 337 | 2.0 | 0.0 | 0.00 | 0.00 | 0.05 | 69 | 1100.1 |
| 20260831160129 | 70 | 80 | 3.0 | 0.0 | 0.00 | 0.00 | 0.05 | 66 | 1100.1 |
| 20260831153001 | 70 | 17 | 5.0 | 0.0 | 0.00 | 0.00 | 0.05 | 65 | 1100.1 |
| 20260831140024 | 68 | 9 | 4.0 | 0.0 | 0.00 | 0.00 | 0.05 | 73 | 1100.1 |
| 20260831131629 | 67 | 360 | 6.0 | 0.0 | 0.00 | 0.00 | 0.05 | 77 | 1100.1 |
| 20260831130138 | 67 | 349 | 4.0 | 0.0 | 0.00 | 0.00 | 0.05 | 76 | 1100.1 |
| 20260831124506 | 67 | 10 | 5.0 | 0.0 | 0.00 | 0.00 | 0.05 | 78 | 1100.1 |
| 20260831123103 | 67 | 53 | 5.0 | 0.0 | 0.00 | 0.00 | 0.05 | 81 | 1100.1 |
| 20260831121615 | 66 | 5 | 4.0 | 0.0 | 0.00 | 0.00 | 0.05 | 82 | 1100.1 |
| 20260831120151 | 66 | 33 | 4.0 | 0.0 | 0.00 | 0.00 | 0.05 | 86 | 1100.1 |
| 20260831114625 | 66 | 21 | 2.0 | 0.0 | 0.00 | 0.00 | 0.05 | 87 | 1100.1 |
| 20260831113010 | 65 | 27 | 3.0 | 0.0 | 0.00 | 0.00 | 0.05 | 88 | 1100.1 |
| 20260831111516 | 65 | 5 | 2.0 | 0.0 | 0.00 | 0.00 | 0.05 | 90 | 1100.1 |
| 20260831110115 | 64 | 27 | 1.0 | 0.0 | 0.00 | 0.00 | 0.05 | 90 | 1100.1 |
| 20260831104626 | 65 | 9 | 5.0 | 0.0 | 0.00 | 0.00 | 0.05 | 91 | 1100.1 |
| 20260831103127 | 65 | 18 | 2.0 | 0.0 | 0.00 | 0.00 | 0.05 | 91 | 1100.1 |
| 20260831101513 | 65 | 9 | 4.0 | 0.0 | 0.00 | 0.00 | 0.05 | 91 | 1100.1 |
| 20260831100120 | 65 | 15 | 3.0 | 0.0 | 0.00 | 0.00 | 0.05 | 91 | 1100.1 |
| 20260831094622 | 65 | 235 | 2.0 | 0.0 | 0.00 | 0.00 | 0.05 | 91 | 1100.1 |
| 20260831093002 | 65 | 235 | 3.0 | 0.0 | 0.00 | 0.00 | 0.05 | 91 | 1100.1 |
| 20260831091613 | 65 | 235 | 3.0 | 0.0 | 0.00 | 0.00 | 0.05 | 91 | 1100.1 |
| 20260831090120 | 65 | 235 | 3.0 | 0.0 | 0.00 | 0.00 | 0.05 | 91 | 1100.1 |
| 20260831084626 | 65 | 235 | 2.0 | 0.0 | 0.00 | 0.00 | 0.04 | 91 | 1100.1 |
| 20260831083125 | 66 | 235 | 2.0 | 0.0 | 0.00 | 0.00 | 0.04 | 91 | 1100.1 |
| 20260831081507 | 66 | 235 | 0.0 | 0.0 | 0.00 | 0.00 | 0.04 | 91 | 1100.1 |
| 20260831080052 | 66 | 235 | 0.0 | 0.0 | 0.00 | 0.00 | 0.04 | 91 | 1100.1 |
| 20260831074515 | 66 | 235 | 1.0 | 0.0 | 0.00 | 0.00 | 0.04 | 91 | 1100.1 |
| 20260831073111 | 66 | 235 | 0.0 | 0.0 | 0.00 | 0.00 | 0.04 | 91 | 1100.1 |
| 20260831071623 | 66 | 235 | 0.0 | 0.0 | 0.00 | 0.00 | 0.04 | 91 | 1100.1 |
| 20260831070135 | 67 | 235 | 0.0 | 0.0 | 0.00 | 0.00 | 0.04 | 91 | 1100.1 |
| 20260831064554 | 67 | 235 | 0.0 | 0.0 | 0.00 | 0.00 | 0.04 | 91 | 1100.1 |
| 20260831063111 | 67 | 235 | 0.0 | 0.0 | 0.00 | 0.00 | 0.04 | 91 | 1100.1 |
| 20260831061627 | 67 | 235 | 0.0 | 0.0 | 0.00 | 0.00 | 0.04 | 91 | 1100.1 |
| 20260831060004 | 67 | 235 | 0.0 | 0.0 | 0.00 | 0.00 | 0.04 | 90 | 1100.1 |
| 20260831054517 | 68 | 235 | 0.0 | 0.0 | 0.00 | 0.00 | 0.04 | 91 | 1100.1 |
| 20260831053155 | 68 | 235 | 0.0 | 0.0 | 0.00 | 0.00 | 0.04 | 90 | 1100.1 |
| 20260831051624 | 68 | 235 | 0.0 | 0.0 | 0.00 | 0.00 | 0.04 | 90 | 1100.1 |
| 20260831050134 | 68 | 235 | 0.0 | 0.0 | 0.00 | 0.00 | 0.03 | 90 | 1100.1 |
| 20260831044641 | 69 | 235 | 2.0 | 0.0 | 0.00 | 0.00 | 0.22 | 90 | 1100.1 |
| 20260831043002 | 69 | 235 | 0.0 | 0.0 | 0.00 | 0.00 | 0.21 | 90 | 1100.1 |
| 20260831041618 | 69 | 235 | 0.0 | 0.0 | 0.00 | 0.00 | 0.21 | 90 | 1100.1 |
| 20260831040107 | 69 | 235 | 0.0 | 0.0 | 0.00 | 0.00 | 0.21 | 89 | 1100.1 |
| 20260831034612 | 69 | 235 | 0.0 | 0.0 | 0.00 | 0.00 | 0.12 | 89 | 1100.1 |
| 20260831033118 | 69 | 235 | 1.0 | 0.0 | 0.00 | 0.00 | 0.03 | 88 | 1100.1 |
| 20260831031635 | 69 | 235 | 1.0 | 0.0 | 0.00 | 0.00 | 0.02 | 88 | 1100.1 |
| 20260831030110 | 69 | 235 | 1.0 | 0.0 | 0.00 | 0.00 | 0.02 | 88 | 1100.1 |
| 20260831024611 | 69 | 235 | 1.0 | 0.0 | 0.00 | 0.00 | 0.02 | 87 | 1100.1 |
| 20260831023123 | 70 | 235 | 0.0 | 0.0 | 0.00 | 0.00 | 0.02 | 86 | 1100.1 |
| 20260831021633 | 70 | 235 | 1.0 | 0.0 | 0.00 | 0.00 | 0.01 | 85 | 1100.1 |
| 20260831020136 | 71 | 235 | 1.0 | 0.0 | 0.00 | 0.00 | 0.00 | 84 | 1100.1 |
| 20260831014503 | 71 | 235 | 1.0 | 0.0 | 0.00 | 0.00 | 0.00 | 84 | 1100.1 |
| 20260831013017 | 71 | 235 | 2.0 | 0.0 | 0.00 | 0.00 | 0.00 | 84 | 1100.1 |
| 20260831011615 | 71 | 235 | 2.0 | 0.0 | 0.00 | 0.00 | 0.00 | 84 | 1100.1 |
| 20260831010129 | 71 | 242 | 2.0 | 0.0 | 0.00 | 0.00 | 0.00 | 83 | 1100.1 |
| 20260831004636 | 71 | 239 | 2.0 | 0.0 | 0.00 | 0.00 | 0.00 | 82 | 1100.1 |
| 20260831003003 | 72 | 218 | 2.0 | 0.0 | 0.00 | 0.00 | 0.00 | 80 | 1100.1 |
| 20260831001607 | 72 | 234 | 2.0 | 0.0 | 0.00 | 0.00 | 0.00 | 79 | 1100.1 |
| 20260831000116 | 72 | 232 | 3.0 | 0.0 | 0.00 | 0.00 | 0.00 | 78 | 1100.1 |
| 20260830234625 | 72 | 233 | 1.0 | 0.0 | 0.00 | 0.00 | 0.00 | 77 | 1100.1 |
| 20260830233136 | 73 | 227 | 1.0 | 0.0 | 0.00 | 0.00 | 0.00 | 75 | 1100.1 |
| 20260830231513 | 73 | 236 | 2.0 | 0.0 | 0.00 | 0.00 | 0.00 | 74 | 1100.1 |
| 20260830230014 | 73 | 234 | 2.0 | 0.0 | 0.00 | 0.00 | 0.00 | 73 | 1100.1 |
| 20260830224619 | 74 | 246 | 2.0 | 0.0 | 0.00 | 0.00 | 0.00 | 71 | 1100.1 |
| 20260830223126 | 74 | 235 | 1.0 | 0.0 | 0.00 | 0.00 | 0.00 | 71 | 1100.1 |
| 20260830221504 | 74 | 235 | 2.0 | 0.0 | 0.00 | 0.00 | 0.00 | 70 | 1100.1 |
| 20260830220002 | 75 | 242 | 3.0 | 0.0 | 0.00 | 0.00 | 0.00 | 68 | 1100.1 |
| 20260830214503 | 75 | 233 | 3.0 | 0.0 | 0.00 | 0.00 | 0.00 | 67 | 1100.1 |
| 20260830213057 | 75 | 240 | 2.0 | 0.0 | 0.00 | 0.00 | 0.00 | 67 | 1100.1 |
| 20260830211624 | 76 | 240 | 2.0 | 0.0 | 0.00 | 0.00 | 0.00 | 66 | 1100.1 |
| 20260830210117 | 77 | 240 | 2.0 | 0.0 | 0.00 | 0.00 | 0.00 | 63 | 1100.1 |
| 20260830204625 | 78 | 240 | 2.0 | 0.0 | 0.00 | 0.00 | 0.00 | 62 | 1100.1 |
| 20260830203124 | 78 | 222 | 2.0 | 0.0 | 0.00 | 0.00 | 0.00 | 63 | 1100.1 |
| 20260830201631 | 79 | 229 | 3.0 | 0.0 | 0.00 | 0.00 | 0.00 | 64 | 1100.1 |
| 20260830200135 | 79 | 254 | 3.0 | 0.0 | 0.00 | 0.00 | 0.00 | 63 | 1100.1 |
| 20260830194615 | 79 | 254 | 3.0 | 0.0 | 0.00 | 0.00 | 0.00 | 63 | 1100.1 |
| 20260830193119 | 80 | 191 | 4.0 | 0.0 | 0.00 | 0.00 | 0.00 | 59 | 1100.1 |
| 20260830191629 | 83 | 263 | 4.0 | 0.0 | 0.00 | 0.00 | 0.00 | 56 | 1100.1 |
| 20260830190135 | 84 | 245 | 4.0 | 0.0 | 0.00 | 0.00 | 0.00 | 48 | 1100.1 |
| 20260830184511 | 84 | 247 | 3.0 | 0.0 | 0.00 | 0.00 | 0.00 | 46 | 1100.1 |
| 20260830183137 | 84 | 255 | 4.0 | 0.0 | 0.00 | 0.00 | 0.00 | 47 | 1100.1 |
| 20260830171635 | 83 | 265 | 5.0 | 0.0 | 0.00 | 0.00 | 0.00 | 51 | 1100.1 |
| 20260830170138 | 82 | 237 | 4.0 | 0.0 | 0.00 | 0.00 | 0.00 | 52 | 1100.1 |
| 20260830164506 | 83 | 221 | 5.0 | 0.0 | 0.00 | 0.00 | 0.00 | 51 | 1100.1 |